GW2347 Weather Reports


time (UTC)temp
C
wind
direction
speed
KPH
gust
KPH
rain 1hr
cm
rain 24hr
cm
rain mn
cm
humidity
%
barometer
mb
20260906220004 31 42 4.8 14.5 0.00 0.00 0.00 32 1013.1
20260906214606 31 61 6.4 16.1 0.00 0.00 0.00 32 1013.2
20260906213043 31 360 8.0 17.7 0.00 0.00 0.00 34 1013.6
20260906211537 31 38 4.8 17.7 0.00 0.00 0.00 34 1013.9
20260906210058 30 360 4.8 17.7 0.00 0.00 0.00 36 1014.2
20260906204536 30 9 4.8 17.7 0.00 0.00 0.00 36 1014.5
20260906203046 30 5 1.6 11.3 0.00 0.00 0.00 36 1014.8
20260906201544 30 139 0.0 16.1 0.00 0.00 0.00 36 1015.0
20260906200032 30 32 4.8 14.5 0.00 0.00 0.00 36 1015.0
20260906194520 29 84 8.0 19.3 0.00 0.00 0.00 30 1015.1
20260906193013 29 15 4.8 14.5 0.00 0.00 0.00 37 1015.2
20260906191509 29 140 3.2 12.9 0.00 0.00 0.00 40 1015.4
20260906190059 29 41 1.6 14.5 0.00 0.00 0.00 38 1015.6
20260906184550 28 296 3.2 12.9 0.00 0.00 0.00 40 1015.9
20260906183056 28 155 1.6 9.7 0.00 0.00 0.00 41 1016.2
20260906181548 27 199 3.2 8.0 0.00 0.00 0.00 43 1016.6
20260906174607 27 5 3.2 12.9 0.00 0.00 0.00 43 1017.2
20260906173047 27 5 8.0 12.9 0.00 0.00 0.00 42 1017.4
20260906171606 26 13 0.0 8.0 0.00 0.00 0.00 46 1017.7
20260906170045 25 360 3.2 12.9 0.00 0.00 0.00 47 1018.0
20260906164528 25 29 1.6 8.0 0.00 0.00 0.00 51 1017.9
20260906163024 24 360 4.8 9.7 0.00 0.00 0.00 55 1018.0
20260906161534 23 5 1.6 4.8 0.00 0.00 0.00 58 1018.0
20260906160005 23 5 0.0 9.7 0.00 0.00 0.00 60 1017.9
20260906154559 22 15 3.2 12.9 0.00 0.00 0.00 63 1017.9
20260906154503 22 20 3.2 12.9 0.00 0.00 0.00 63 1017.8
20260906153108 21 9 3.2 12.9 0.00 0.00 0.00 66 1017.9
20260906151558 21 360 1.6 8.0 0.00 0.00 0.00 69 1018.0
20260906151506 21 16 1.6 8.0 0.00 0.00 0.00 69 1018.1
20260906150054 20 15 1.6 8.0 0.00 0.00 0.00 71 1018.0
20260906144546 19 16 4.8 12.9 0.00 0.00 0.00 72 1017.9
20260906143038 19 18 4.8 9.7 0.00 0.00 0.00 73 1018.0
20260906141527 18 15 3.2 9.7 0.00 0.00 0.00 73 1018.1
20260906140024 18 17 1.6 8.0 0.00 0.00 0.00 75 1018.0
20260906134514 17 22 1.6 8.0 0.00 0.00 0.00 75 1017.8
20260906133010 17 17 1.6 8.0 0.00 0.00 0.00 76 1017.6
20260906131503 17 16 3.2 8.0 0.00 0.00 0.00 79 1017.4
20260906130001 16 28 0.0 9.7 0.00 0.00 0.00 81 1017.3
20260906124550 16 55 1.6 6.4 0.00 0.00 0.00 83 1017.3
20260906123047 16 5 0.0 0.0 0.00 0.00 0.00 84 1017.4
20260906121541 16 5 0.0 0.0 0.00 0.00 0.00 84 1017.4
20260906120027 16 5 0.0 1.6 0.00 0.00 0.00 83 1017.5
20260906114543 16 5 0.0 8.0 0.00 0.00 0.00 81 1017.2
20260906113028 16 5 3.2 8.0 0.00 0.00 0.00 80 1017.3
20260906111521 17 61 1.6 14.5 0.00 0.00 0.00 78 1017.3
20260906110012 17 34 1.6 12.9 0.00 0.00 0.00 76 1017.0
20260906104553 17 23 3.2 9.7 0.00 0.00 0.00 75 1016.9
20260906104503 17 20 3.2 9.7 0.00 0.00 0.00 75 1016.9
20260906103049 17 19 1.6 8.0 0.00 0.00 0.00 73 1017.0
20260906101537 17 5 0.0 4.8 0.00 0.00 0.00 71 1016.9
20260906100041 18 5 1.6 6.4 0.00 0.00 0.00 67 1016.9
20260906094541 18 5 0.0 8.0 0.00 0.00 0.00 63 1016.9
20260906093049 18 5 3.2 8.0 0.00 0.00 0.00 61 1016.9
20260906091538 19 360 3.2 6.4 0.00 0.00 0.00 59 1017.1
20260906090026 20 16 1.6 6.4 0.00 0.00 0.00 58 1016.8
20260906084517 20 17 3.2 9.7 0.00 0.00 0.00 54 1016.8
20260906083021 21 5 1.6 14.5 0.00 0.00 0.00 47 1016.7
20260906081529 21 12 0.0 8.0 0.00 0.00 0.00 46 1016.7
20260906080024 22 9 3.2 12.9 0.00 0.00 0.00 46 1016.5
20260906074511 22 5 4.8 14.5 0.00 0.00 0.00 47 1016.2
20260906073058 22 19 4.8 14.5 0.00 0.00 0.00 44 1016.2
20260906073002 22 19 6.4 14.5 0.00 0.00 0.00 44 1016.2
20260906071554 22 19 3.2 9.7 0.00 0.00 0.00 44 1016.4
20260906070041 22 17 3.2 9.7 0.00 0.00 0.00 46 1016.5
20260906064537 22 15 3.2 14.5 0.00 0.00 0.00 44 1016.4
20260906063047 23 16 6.4 12.9 0.00 0.00 0.00 44 1016.4
20260906061538 23 15 4.8 14.5 0.00 0.00 0.00 44 1016.8
20260906060046 23 9 4.8 16.1 0.00 0.00 0.00 41 1016.8
20260906054525 24 9 0.0 6.4 0.00 0.00 0.00 37 1016.6
20260906053017 25 16 0.0 6.4 0.00 0.00 0.00 37 1016.9
20260906051515 24 16 1.6 14.5 0.00 0.00 0.00 37 1017.2
20260906050025 23 14 1.6 8.0 0.00 0.00 0.00 38 1017.5
20260906044523 23 13 4.8 16.1 0.00 0.00 0.00 39 1017.6
20260906043025 23 9 0.0 4.8 0.00 0.00 0.00 37 1016.7
20260906041509 24 9 0.0 1.6 0.00 0.00 0.00 36 1016.1
20260906040057 24 17 1.6 3.2 0.00 0.00 0.00 36 1016.0
20260906040001 24 17 1.6 4.8 0.00 0.00 0.00 36 1015.9
20260906034601 24 16 0.0 0.0 0.00 0.00 0.00 36 1015.8
20260906033046 24 15 4.8 8.0 0.00 0.00 0.00 35 1016.0
20260906031543 25 19 0.0 0.0 0.00 0.00 0.00 34 1015.9
20260906030043 25 19 0.0 4.8 0.00 0.00 0.00 33 1015.3
20260906024555 26 5 1.6 6.4 0.00 0.00 0.00 32 1014.6
20260906023047 26 9 4.8 9.7 0.00 0.00 0.00 32 1014.7
20260906021542 27 17 4.8 12.9 0.00 0.00 0.00 31 1014.7
20260906020034 27 22 4.8 9.7 0.00 0.00 0.00 30 1014.6
20260906014529 27 17 4.8 16.1 0.00 0.00 0.00 29 1014.2
20260906013035 28 5 6.4 14.5 0.00 0.00 0.00 28 1014.2
20260906011531 28 17 3.2 16.1 0.00 0.00 0.00 28 1014.3
20260906010027 29 16 8.0 19.3 0.00 0.00 0.00 26 1014.2
20260906004549 30 5 4.8 14.5 0.00 0.00 0.00 23 1014.3
20260906003031 31 19 6.4 17.7 0.00 0.00 0.00 22 1014.1
20260906001543 32 37 3.2 8.0 0.00 0.00 0.00 21 1014.1
20260906000023 33 146 1.6 4.8 0.00 0.00 0.00 20 1014.0
20260905234537 33 171 1.6 8.0 0.00 0.00 0.00 21 1014.0
20260905233032 32 138 3.2 9.7 0.00 0.00 0.00 21 1014.0
20260905231528 32 146 3.2 8.0 0.00 0.00 0.00 20 1013.9
20260905230041 33 173 3.2 8.0 0.00 0.00 0.00 19 1013.9
20260905224533 33 242 0.0 4.8 0.00 0.00 0.00 19 1013.8
20260905223040 32 243 3.2 11.3 0.00 0.00 0.00 20 1014.0
20260905221521 32 181 1.6 8.0 0.00 0.00 0.00 21 1014.2